TIBA-1

Last updated on Sun Dec 07 2025 00:02:50 GMT+0000 (Coordinated Universal Time)

1 44800U 19080A 25340.71915015 .00000162 00000+0 00000+0 0 9994 2 44800 0.0576 16.2354 0002389 243.7657 110.1508 1.00273298 22128
UTC large
Height (km)
Speed (km/s)
/
Latitude / Longitude
Inclination (degrees)
Orbital Period (minutes)
Azimuth
Elevation
Range (km)
Doppler Factor

Next 0 passes for location: London (51.5072 / 0.1276)

Sorry there are no passes over London.